Current Version              Previous Version:    01  02  03  04  05  06  07  08  09  10  11  12  13  14  15  16  17  18  19  20  21  22  23  24  25  26  27  28  29  30  
   31  32  33  34  35  36  37  38  39  40  41  42  43  44  45  46  47  48  49  50  51  52  53  54  55  56  57  58  59  60  

[Printable]
935
ASUS44 KEWX 210302
RWRTX
SOUTH TEXAS REGIONAL WEATHER ROUNDUP
NATIONAL WEATHER SERVICE AUSTIN/SAN ANTONIO TX
1000 PM CDT SAT SEP 20 2014

NOTE: "FAIR" INDICATED FEW OR NO CLOUDS BELOW 12,000 FEET WITH NO
SIGNIFICANT WEATHER AND/OR OBSTRUCTIONS TO VISIBILITY.

* - THESE STATIONS ARE NOT NWS OR FAA STATIONS...AND ARE NOT SUBJECT
    TO NWS AND FAA QUALITY CONTROL.

TXZ171-172-183>190-210400-
TEXAS HILL COUNTRY AND EDWARDS PLATEAU

CITY           SKY/WX    TMP DP  RH WIND       PRES   REMARKS
JUNCTION       PTCLDY    78  70  76 E5        30.03R
*LLANO         CLEAR     79  72  78 CALM      30.04R
BURNET         MOCLDY    77  70  79 E3        30.04R
*HORSESHOE BAY PTCLDY    76  70  81 SE3       30.01R
*KERRVILLE     PTCLDY    76  72  86 SE3       30.03R
*FREDERICKSBRG PTCLDY    73  70  88 E3        30.04R
*ROCKSPRINGS   HVY RAIN  72  70  94 SE3       30.07R
*BOERNE STAGE  MOCLDY    77  68  73 SE9       30.03R
*CASTROVILLE   CLOUDY    79  69  73 SE6       30.01R
HONDO          CLOUDY    80  72  76 SE10      30.01R
*UVALDE        PTCLDY    78  75  90 E3        29.98R
DEL RIO        CLOUDY    80  71  74 NE13      29.94R
LAUGHLIN AFB   NOT AVBL
CARRIZO SPRGS  CLOUDY    79  73  83 E6        29.95R
$$

TXZ173-191>194-202-209-217>225-228-210400-
CENTRAL AND SOUTH CENTRAL TEXAS

CITY           SKY/WX    TMP DP  RH WIND       PRES   REMARKS
GEORGETOWN     PTCLDY    79  70  73 CALM      30.01R
AUSTIN/BERGSTM CLOUDY    79  73  82 E3        29.98R
AUSTIN/MABRY   CLOUDY    79  71  76 CALM      30.00R
*AUSTIN/EXEC   CLOUDY    77  72  83 CALM      30.00R
*LAGO VISTA    PTCLDY    77  68  74 E3        30.02R
SAN MARCOS     CLOUDY    79  70  73 S8        30.00R
NEW BRAUNFELS  MOCLDY    78  74  87 SE6       29.98R
RANDOLPH AFB   MOCLDY    77  71  83 SE5       30.00R
PT SAN ANTONIO MOCLDY    78  72  83 E5        29.98R
SAN ANTONIO    MOCLDY    80  72  76 SE9       30.00R
STINSON FIELD  PTCLDY    77  73  87 SE3       29.97R
*PLEASANTON    PTCLDY    75  72  90 CALM      29.97S
*LA GRANGE     MOCLDY    82  76  79 CALM      29.96R HX  90
*GIDDINGS      CLEAR     78  70  75 E3        30.02R
*GONZALES      CLOUDY    79  76  91 CALM      29.98R
$$

TXZ163>164-176>182-195>201-210>213-226-227-235-210400-
SOUTHEAST TEXAS

CITY           SKY/WX    TMP DP  RH WIND       PRES   REMARKS
COLLEGE STN    CLEAR     79  69  71 E5        29.98R
*BRYAN         CLEAR    N/A N/A N/A E3        29.98R
*CALDWELL      CLEAR     79  70  73 CALM      30.01R
*CROCKETT      CLEAR     75  73  94 CALM      30.01R
*BRENHAM       CLEAR     79  72  78 CALM      29.99R
HUNTSVILLE     CLEAR     75  69  81 CALM      29.99R
CONROE         MOCLDY    73  71  93 CALM      29.99R
HOUSTON BUSH   CLEAR     76  73  91 SE6       29.97R
HOUSTON HOBBY  PTCLDY    80  75  84 CALM      29.96R
*HOUSTON SW AP CLEAR     71  69  93 CALM      29.97R
PEARLAND       CLEAR     79  75  87 E6        29.97R
HOUSTON HOOKS  CLEAR     75  72  90 CALM      29.98R
ELLINGTON FLD  CLEAR     79  73  83 CALM      29.96S
SUGAR LAND     CLEAR     80  74  81 E5        29.96R
*HOUSTON EXEC  PTCLDY    77  77 100 E5        29.98R
*CLEVELAND MUN PTCLDY    74  73  97 S3        29.99R
*WHARTON       CLEAR     76  73  90 NE3       29.97R
$$

TXZ214>216-236>238-210400-
THE UPPER TEXAS COAST

CITY           SKY/WX    TMP DP  RH WIND       PRES   REMARKS
*ORANGE        CLEAR     75  75 100 CALM      29.98S
PORT ARTHUR    CLEAR     77  73  87 CALM      29.96R
GALVESTON      CLEAR     82  76  81 E12       29.96R
ANGLETON       CLEAR     78  75  90 NE5       29.96R
*BAY CITY      CLEAR    N/A N/A N/A NE3       29.95R
PALACIOS       CLEAR     78  75  90 NE7       29.94R
$$

TXZ229>234-239>247-210400-
TEXAS COASTAL BEND AND RIO GRANDE PLAINS

CITY           SKY/WX    TMP DP  RH WIND       PRES   REMARKS
VICTORIA       CLEAR     79  76  90 NE5       29.96R
*BEEVILLE      CLEAR     78  75  90 MISG      29.95R
ROCKPORT       PTCLDY    82  76  81 E12       29.92R
*PORT ARANSAS  MOCLDY    82  75  80 E12       29.92R
*PORT LAVACA   CLEAR     78  75  88 E7        29.95R
*INGLESIDE     CLEAR     83  74  73 E8        29.91S HX  90
CORPUS CHRISTI PTCLDY    82  74  76 E9        29.92R
CORPUS NAS     CLEAR     82  78  88 E10       29.92R HX  91
*ROBSTOWN      NOT AVBL
ALICE          MOCLDY    79  75  87 E6        29.93R
KINGSVILLE NAS PTCLDY    79  78  97 NE5       29.93R
COTULLA        PTCLDY    77  74  90 E8        29.96R
*FAITH RANCH   PTCLDY    81  72  74 E6        29.94R
LAREDO         PTCLDY    80  75  84 CALM      29.97R
$$

TXZ248>255-210400-
DEEP SOUTH TEXAS

CITY           SKY/WX    TMP DP  RH WIND       PRES   REMARKS
BROWNSVILLE    PTCLDY    80  77  90 CALM      29.91R
PORT ISABEL    PTCLDY    82  75  79 E7        29.90R
*SOUTH PADRE   PTCLDY    82  77  83 E7        29.90R HX  91
HARLINGEN      PTCLDY    78  77  96 CALM      29.90R
*HEBBRONVILLE    N/A     77  74  92 CALM      29.95R
MCALLEN        MOCLDY    81  78  91 CALM      29.93R
*WESLACO       PTCLDY    78  75  91 CALM      29.91R FOG
FALFURRIAS     MOCLDY   N/A N/A N/A NE3       29.93R
EDINBURG       PTCLDY    79  74  85 NE3       29.93R
*ZAPATA        MOCLDY    82  73  74 E5        29.94R
$$

TXZ213>215-236>238-242>244-246-247-251-254-255-210400-
CMAN STATIONS

STATION/POSITION TIME  TEMP    WIND        PRES    WAVE
                       AIR SEA DIR/SP/G            HT/PER
                 (UTC) (F)     (DEG/KT/KT) (MB)    (FT/S)
SABINE PASS      0200   82 82  110/  4/  6 1014.5
SEA RIM ST PARK  0200   82     110/  7/  8 1014.7
NORTH JETTY/GLS  0200   83 83  130/ 14/ 17   N/A
EAGLE POINT      0200   82 82  120/  9/ 11 1014.3
MORGANS POINT    0200   81     120/  5/  6 1014.3
MISSION/ARANSAS  0200           70/ 10     1014.0
PORT O`CONNOR    0200           80/ 16/ 19   N/A
PORT ARANSAS     0200   83 85   70/ 15/ 17 1013.2
MALAQUITE BEACH  0200   83 86   60/ 12/ 14 1012.1
BAFFIN BAY       0200   83 86   60/ 10/ 12 1012.5
PORT ISABEL      0200   83 85   60/  2/  5 1012.6
$$

GMZ080-GMZ150>470-210400-
OFFSHORE BUOY REPORTS

STATION/POSITION TIME  TEMP    WIND        PRES    WAVE
                       AIR SEA DIR/SP/G            HT/PER
                 (UTC) (F)     (DEG/KT/KT) (MB)    (FT/S)
20 E GALVESTON   0300   83 83  100/ 14/ 16 1013.8    4/ 6
90 E PT ARANSAS  0300   84 85   70/ 17/ 19 1012.9    4/ 5
35 NE PT MANSFLD 0200   83 85   50/ 12/ 14 1011.3    2/ 5
200 E PT ISABEL  0200   82 86  100/  2/  2 1011.5    3/ 7
$$